Starlink 4403

operational
NORAD ID: 53197 Int'l Des: 2022-084 Owner: SPXS Country: US Constellation: starlink
LEOCIRCULARRETROGRADESSO

About Starlink 4403

Description loading...

Live Position

Loading 3D Globe...

Upcoming Passes

Altitude History

Altitude vs Time

uPlot chart will show altitude changes over time

Two-Line Element Set

1 53197U 22084J 25299.13030157 .00000634 00000-0 53861-4 0 9998
2 53197 97.6033 358.4648 0001296 237.6005 122.5094 15.01262865179123
Epoch: Oct 26, 2025 • Age: 10 hours

Current Status

Altitude 566.3 km
Velocity 7.58 km/s
Sub-Earth Point -4.93°S, 60.13°W
Launch Date Jul 22, 2022
Age 3.2 years
Type internet

Technical Details

Classification Payload
Mass 297.00 kg
Dry Mass 275.00 kg
Total Mass 297.00 kg
Length 0.20 m
Diameter 2.80 m
Span 9.00 m
Shape Box + pan
Manufacturer SPXS
Bus Type Starlink
Phase Status In Orbit
Owner/State SPXS/US

Large Constellations

Loading constellations...